sat.trackr.live / text

‹ back to catalog

GSAT0225 (GALILEO 29)

NORAD 59598 · 2024-079A

PAYLOAD ACTIVE UNKNOWN

§ Identity

Operator
Country
ESA
Launch date
2024-04-28
Launch site
AFETR
Launch vehicle
Mass (kg)
RCS (m²)

Purposes: earth_obs, nav

External: N2YO · Heavens-Above · Gunter

§ Orbital elements

Epoch: 2026-05-22T07:12:38.722752Z

Period
844.70 min
Inclination
55.1041°
Eccentricity
0.0002201
Mean motion
1.70474068 rev/d
Perigee alt
23,215.7 km
Apogee alt
23,228.7 km
Semi-major
29,600.3 km
B*
0.0000e+0
RAAN
101.8024°
Arg perigee
291.9380°
Mean anomaly
246.4363°
Rev number
1,287

§ Raw data

GSAT0225 (GALILEO 29)1 59598U 24079A   26142.30044818  .00000020  00000+0  00000+0 0  99912 59598  55.1041 101.8024 0002201 291.9380 246.4363  1.70474068 12870

JSON: /api/v1/satellites/59598 · /tle

For live sub-satellite position, see the globe view (requires WebGL).

§ Visibility from observer

Set your observer location to see the next 7 days of passes ≥ 10°. The values pass through the URL so the page stays shareable.

No JS? Fill the form by hand. The geolocation button needs JavaScript.